7 * 24
多渠道服务支持
RADUGA 7(彩虹7星)是独联体(CIS)发射的军用通信卫星,隶属于俄罗斯“彩虹”(Raduga)地球静止轨道通信卫星系列。由俄罗斯普里克拉德诺伊·梅哈尼基设计局研制,1980年10月5日发射升空。卫星具备高抗干扰能力,可支持加密数据传输,为东半球(极区除外)提供军事通信及民用电视、电话电报服务,在俄罗斯国防通信体系中发挥重要作用。
| 数据来源 | 国际轨道数据 |
| 星历时间: | 2026-09-11T06:25:50+0800 7小时前 查看轨道信息 |
| 半长轴: | 42160.86km |
| 偏心率: | 0.0012092 |
| 轨道倾角: | 5.747° |
| 近地点辐角 | 316.220° |
| 升交点赤经 | 288.451° |
| 平近点角 | 54.812° |
| 近地点: | 35731.742km |
| 远地点: | 35833.704km |
| 周期: | 1435.899分钟 |
| 每日圈数: | 1.002856 |